Change the Weather History Date:

Friday, February 21, 2014

  Actual Average Record
Temperature  
Mean Temperature 23 °F 25 °F  
Max Temperature 32 °F 33 °F 64 °F (1930)
Min Temperature 13 °F 16 °F -25 °F (1873)
Degree Days  
Heating Degree Days 42 40  
Month to date heating degree days 1135 919  
Since 1 July heating degree days 5782 5238  
Cooling Degree Days 0 0  
Month to date cooling degree days 0 0  
Year to date cooling degree days 0 0  
Moisture  
Dew Point 10 °F    
Average Humidity 72    
Maximum Humidity 82    
Minimum Humidity 62    
Precipitation  
Precipitation 0.01 in 0.03 in 0.70 in (1922)
Month to date precipitation 1.27 0.74  
Year to date precipitation 2.25 1.86  
Snow  
Snow 0.20 in 0.30 in 7.40 in (1945)
Month to date snowfall 9.5 6.3  
Since 1 July snowfall 38.9 32.6  
Snow Depth 16.00 in    
Sea Level Pressure  
Sea Level Pressure 29.59 in    
Wind  
Wind Speed 18 mph (West)    
Max Wind Speed 31 mph    
Max Gust Speed 39 mph    
Visibility 9 miles    
Events Snow    
T = Trace of Precipitation, MM = Missing Value Source: NWS Daily Summary

Daily Weather History Graph

Daily Weather History Graph

Search for Another Location

Airport or City:

Trip Planner

Search our weather history database for the weather conditions in past years. The results will help you decide how hot, cold, wet, or windy it might be!

Date:

Astronomy

Feb. 21, 2014 Rise Set
Actual Time 6:54 AM CST 5:43 PM CST
Civil Twilight 6:25 AM CST 6:12 PM CST
Nautical Twilight 5:52 AM CST 6:45 PM CST
Astronomical Twilight 5:18 AM CST 7:19 PM CST
Moon No Moon Rise 10:05 AM CST (2/21)
Length of Visible Light 11h 46m
Length of Day
10h 48m
Waning Gibbous, 60% of the Moon is Illuminated
Feb 21
Waning Gibbous
Feb 22
Last Quarter
Mar 1
New
Mar 8
First Quarter
Mar 16
Full

Hourly Weather History & Observations

Time (CST) Temp. Windchill Dew Point Humidity Pressure Visibility Wind Dir Wind Speed Gust Speed Precip Events Conditions
12:53 AM 26.1 °F 12.3 °F 19.9 °F 78% 29.22 in 8.0 mi West 19.6 mph - 0.00 in   Overcast
1:53 AM 21.9 °F 6.2 °F 15.1 °F 75% 29.27 in 9.0 mi West 21.9 mph 28.8 mph 0.00 in   Overcast
2:53 AM 19.0 °F 3.6 °F 12.0 °F 74% 29.30 in 5.0 mi West 18.4 mph 29.9 mph 0.00 in Snow Light Snow
3:53 AM 18.0 °F 0.9 °F 10.9 °F 74% 29.36 in 10.0 mi West 21.9 mph 29.9 mph 0.00 in   Overcast
4:53 AM 17.1 °F -1.0 °F 9.0 °F 71% 29.41 in 10.0 mi West 24.2 mph 29.9 mph 0.00 in Snow Light Snow
5:53 AM 16.0 °F -0.4 °F 8.1 °F 71% 29.44 in 7.0 mi West 18.4 mph 26.5 mph 0.00 in Snow Light Snow
6:53 AM 14.0 °F -2.5 °F 6.1 °F 71% 29.46 in 9.0 mi West 17.3 mph 29.9 mph 0.00 in   Overcast
7:53 AM 12.9 °F -5.3 °F 6.1 °F 74% 29.51 in 9.0 mi West 20.7 mph 29.9 mph 0.00 in   Overcast
8:53 AM 14.0 °F -3.9 °F 6.1 °F 71% 29.52 in 6.0 mi West 20.7 mph - N/A   Haze
9:53 AM 14.0 °F -2.0 °F 6.1 °F 71% 29.55 in 6.0 mi WNW 16.1 mph 31.1 mph 0.00 in   Overcast
10:53 AM 16.0 °F -2.1 °F 8.1 °F 71% 29.56 in 6.0 mi West 23.0 mph 34.5 mph 0.00 in   Haze
11:53 AM 17.1 °F 1.0 °F 8.1 °F 68% 29.59 in 7.0 mi West 18.4 mph 28.8 mph 0.00 in Snow Light Snow
12:53 PM 19.0 °F 3.6 °F 10.0 °F 68% 29.60 in 9.0 mi West 18.4 mph 23.0 mph 0.00 in   Overcast
1:53 PM 21.0 °F 9.3 °F 10.9 °F 65% 29.62 in 10.0 mi West 11.5 mph - 0.00 in   Mostly Cloudy
2:13 PM 21.0 °F 8.6 °F 10.9 °F 65% 29.59 in 10.0 mi West 12.7 mph 20.7 mph N/A   Scattered Clouds
2:41 PM 21.9 °F 8.2 °F 10.9 °F 63% 29.59 in 10.0 mi West 16.1 mph - N/A   Mostly Cloudy
2:53 PM 21.9 °F 7.3 °F 10.9 °F 63% 29.65 in 10.0 mi West 18.4 mph 25.3 mph N/A   Scattered Clouds
3:53 PM 21.9 °F 6.9 °F 10.0 °F 60% 29.68 in 10.0 mi West 19.6 mph - N/A   Clear
4:53 PM 21.0 °F 5.7 °F 10.0 °F 63% 29.72 in 10.0 mi West 19.6 mph 27.6 mph N/A   Clear
5:53 PM 19.9 °F 5.2 °F 9.0 °F 62% 29.74 in 10.0 mi West 17.3 mph 26.5 mph N/A   Clear
6:53 PM 19.0 °F 4.5 °F 9.0 °F 65% 29.78 in 10.0 mi West 16.1 mph 24.2 mph N/A   Clear
7:53 PM 19.0 °F 4.5 °F 9.0 °F 65% 29.80 in 10.0 mi West 16.1 mph 28.8 mph N/A   Clear
8:53 PM 19.0 °F 3.6 °F 9.0 °F 65% 29.81 in 10.0 mi West 18.4 mph 24.2 mph N/A   Clear
9:53 PM 19.0 °F 5.6 °F 9.0 °F 65% 29.82 in 10.0 mi West 13.8 mph - N/A   Clear
10:53 PM 18.0 °F 3.6 °F 9.0 °F 68% 29.83 in 10.0 mi West 15.0 mph - N/A   Clear
11:53 PM 17.1 °F 2.5 °F 8.1 °F 68% 29.84 in 10.0 mi West 15.0 mph 23.0 mph N/A   Clear